GFSSGP_500_spd_039.txt.gz
Wind_Speed
14 15 13 18 22 17 18 25 25 24 21 20 21 19 17 15 14 11 7 7 6 6 6 2 1 1 1 2 3 3 2 1 2 1 2 1 2 1 1 2 0 1 3 4 3 5 4 5 4
13 16 16 17 21 11 17 22 18 17 19 23 20 18 17 16 15 10 6 5 5 5 5 2 1 2 1 2 4 2 3 5 5 5 5 5 3 3 2 2 2 3 3 7 5 7 8 6 4
11 11 14 17 16 14 18 19 21 19 18 18 13 17 17 18 18 16 8 4 4 4 2 2 1 2 2 3 2 2 3 5 5 6 6 5 4 2 1 2 4 4 9 3 6 7 8 7 6
6 4 8 14 15 16 21 20 22 21 22 16 11 13 15 19 20 14 3 2 1 1 1 2 1 2 2 3 3 3 4 5 6 7 7 7 7 6 6 5 6 6 9 11 9 11 10 11 10
1 2 3 11 14 21 22 21 22 21 20 20 17 14 17 17 18 13 6 4 4 3 2 2 1 2 2 4 4 3 2 1 1 3 5 7 8 10 10 10 9 8 8 8 7 8 9 11 17
4 4 1 5 13 17 20 17 18 21 20 20 19 20 23 24 24 20 12 9 5 4 4 4 2 2 1 3 4 3 4 3 2 1 3 4 6 7 7 9 9 8 9 10 7 6 9 11 14
3 5 5 10 12 15 20 18 12 17 19 20 20 21 22 24 23 20 14 8 8 8 6 6 4 2 3 3 4 4 6 4 2 2 3 3 3 5 6 7 7 8 8 8 8 5 10 12 15
8 8 6 10 15 18 20 20 18 17 19 20 21 22 22 21 21 19 13 11 11 9 7 7 6 5 4 5 5 6 7 7 6 5 5 4 4 4 5 5 6 8 9 9 10 10 4 8 7
6 1 2 5 14 20 20 18 16 16 19 20 21 22 22 22 20 20 18 17 14 12 10 7 5 3 2 3 6 6 7 9 9 8 8 8 7 7 6 7 8 8 9 10 9 13 12 9 8
13 9 5 7 15 16 17 17 15 15 16 18 20 22 20 21 22 21 21 21 16 13 11 9 8 8 4 3 5 7 8 9 10 11 11 11 11 11 11 10 9 10 10 10 10 12 12 11 12
14 9 2 5 10 13 17 18 14 13 16 19 19 20 20 20 20 22 21 22 22 19 16 14 11 12 11 10 7 7 8 8 9 10 11 12 12 13 13 11 11 12 13 12 11 14 16 16 15
11 12 5 2 7 12 15 16 15 14 16 18 19 18 19 21 21 22 24 25 23 21 18 17 15 13 14 15 14 11 10 9 8 9 10 10 12 13 14 14 13 13 14 15 14 14 15 16 19
8 12 8 3 6 7 12 12 16 14 16 18 18 19 20 22 22 23 24 23 24 25 26 17 13 15 17 21 19 15 13 10 8 8 9 11 12 12 14 14 15 14 17 17 18 16 16 15 16
4 4 9 9 4 6 12 10 12 14 16 16 15 20 23 23 23 22 23 22 25 26 22 21 16 15 15 24 20 21 18 12 11 11 11 11 13 13 13 12 11 11 14 16 16 19 21 19 17
6 2 4 6 5 2 3 8 10 11 13 12 14 17 21 24 24 24 22 21 26 28 27 23 17 5 17 23 13 19 21 15 13 10 13 13 12 12 14 15 14 15 16 18 18 17 21 23 19
8 5 4 7 4 1 2 4 5 10 9 9 15 17 21 24 24 24 22 23 24 29 29 28 13 12 23 29 20 12 20 18 15 13 11 13 13 14 16 18 18 18 20 19 17 17 16 23 20
15 12 9 7 5 4 3 1 7 8 8 9 11 17 20 27 29 30 28 27 26 28 29 22 24 29 29 28 25 23 21 23 16 12 10 12 14 16 17 18 16 20 21 20 22 19 16 16 20
17 16 12 11 11 9 8 13 10 11 8 7 10 16 18 28 33 32 31 28 26 27 26 21 24 27 26 30 34 21 15 25 14 10 9 12 11 11 14 15 14 17 18 14 16 17 18 19 20
23 19 12 7 10 6 7 12 13 17 13 8 10 18 22 25 29 34 32 28 25 24 25 25 26 27 25 32 27 2 17 26 16 12 13 11 9 9 12 14 16 16 17 17 15 18 19 17 19
25 24 16 13 12 14 12 8 22 21 21 20 14 20 21 25 28 34 32 27 25 25 26 24 25 24 23 26 28 11 26 22 16 13 13 11 13 15 14 16 15 14 16 15 14 14 16 19 22
24 24 21 18 17 20 18 11 18 21 23 23 17 20 20 21 27 29 30 25 22 24 24 24 26 23 18 17 20 19 11 11 15 12 10 11 14 16 17 16 12 13 14 14 13 14 17 18 19
16 23 25 23 22 22 22 22 19 21 19 21 19 18 15 21 23 29 29 24 19 22 22 23 26 22 14 10 8 6 11 4 3 6 9 11 14 16 16 12 11 12 10 10 13 16 17 18 19
20 22 24 21 23 25 26 29 30 23 18 15 12 15 15 18 25 31 24 23 22 23 24 28 29 23 14 8 9 0 5 2 2 6 10 13 14 11 8 9 8 7 7 9 13 16 17 18 19
20 22 18 17 19 21 22 24 16 16 14 10 13 17 18 14 22 22 21 22 22 23 25 27 30 24 16 7 6 4 5 4 2 6 9 11 7 4 5 3 4 5 7 10 13 14 16 15 15
18 16 18 16 17 17 21 20 16 14 11 13 11 15 15 13 20 20 19 19 23 25 25 26 29 26 17 8 6 6 6 3 2 5 7 6 3 3 4 5 4 6 8 10 10 11 12 11 11
14 19 21 16 16 17 20 19 17 16 15 14 16 11 17 22 21 24 20 19 20 24 22 26 30 27 16 11 9 9 8 2 3 5 3 2 3 3 2 3 1 4 5 9 8 7 3 2 3
16 14 17 18 19 19 19 19 20 18 17 13 17 16 19 18 22 26 33 31 16 20 21 27 30 24 22 15 12 12 8 5 4 4 7 4 2 1 1 2 3 4 6 6 11 7 6 4 5
20 15 14 14 16 15 13 13 17 16 16 15 16 20 21 26 27 27 35 20 18 18 21 28 31 32 28 18 15 13 11 7 3 4 7 6 2 1 1 3 5 5 6 9 9 15 9 6 5
16 13 16 17 17 16 14 17 17 17 17 19 20 23 25 21 18 27 22 20 21 23 23 30 35 42 22 10 15 13 9 5 3 2 4 6 5 3 1 2 2 2 8 12 14 16 18 18 12
16 18 20 18 16 17 18 20 18 17 16 20 15 15 22 22 13 26 28 23 21 24 24 29 37 47 25 5 16 13 7 5 3 3 5 6 5 3 1 1 1 3 6 7 9 10 13 14 15

GFSSGP_500_spd_042.txt.gz
Wind_Speed
16 19 15 20 17 17 19 23 21 19 17 19 21 21 22 17 12 8 5 4 5 6 1 5 5 4 3 3 4 4 2 2 4 3 4 4 4 2 5 3 4 3 3 6 8 6 6 8 8
16 18 18 17 18 17 20 21 23 22 22 25 27 22 20 17 15 10 3 3 4 4 3 2 4 3 3 4 5 4 4 5 6 5 6 7 5 5 4 4 4 4 5 7 6 7 7 7 7
13 14 15 16 14 18 19 21 21 21 22 22 22 23 21 20 16 7 1 3 4 5 3 1 3 2 5 5 4 4 4 5 5 5 5 5 3 2 2 2 3 1 4 7 3 4 9 7 7
10 12 13 16 14 18 21 22 22 22 22 23 22 23 22 22 19 8 4 4 4 3 1 1 2 1 4 5 4 2 2 3 5 6 6 6 5 4 4 3 3 4 6 4 5 5 4 5 6
8 12 8 10 13 17 18 20 24 25 23 22 25 25 26 26 25 17 11 7 6 5 3 3 4 2 1 3 3 1 0 2 3 3 3 6 7 10 10 9 7 6 6 7 3 7 9 6 7
6 11 4 10 11 15 15 16 23 24 22 23 24 26 25 25 23 20 13 10 7 5 4 4 5 4 2 2 1 0 1 1 2 2 2 3 4 6 9 10 10 8 7 6 4 5 6 6 10
6 9 8 11 13 16 19 21 22 22 20 22 23 25 25 23 20 18 15 11 7 5 3 4 3 4 2 0 1 1 1 1 2 3 2 1 1 2 5 5 6 7 6 5 5 5 6 8 13
1 5 10 14 15 15 16 22 24 21 21 22 24 26 26 25 23 21 18 16 13 11 10 8 7 6 5 5 2 3 4 4 4 4 4 2 1 1 3 4 6 6 6 5 6 8 6 8 5
7 5 6 15 17 15 17 18 21 20 21 23 23 25 24 25 26 26 23 21 17 15 13 10 9 9 8 7 7 6 5 5 6 7 7 6 6 6 5 6 7 7 6 6 9 12 11 6 4
9 6 5 11 16 16 17 17 19 18 21 21 23 24 23 23 24 26 24 22 20 18 16 13 10 9 9 10 9 9 8 4 7 9 9 9 9 10 10 9 8 9 8 7 7 9 14 12 10
11 9 6 10 16 16 14 15 17 19 21 23 24 23 22 23 23 25 24 24 24 22 19 15 12 10 10 10 10 10 10 9 6 8 10 10 10 11 12 10 11 12 11 11 10 11 14 14 14
7 5 6 10 12 16 16 18 17 21 22 22 21 21 23 25 25 25 24 25 25 25 19 17 11 7 8 7 13 13 10 10 8 7 7 8 10 10 14 14 12 14 15 14 14 13 13 15 17
4 5 5 9 10 11 14 15 19 20 19 18 19 19 24 26 27 26 24 24 25 27 24 19 15 11 10 10 17 17 14 10 9 10 7 8 9 9 10 12 14 16 16 17 15 15 15 15 15
1 5 4 4 7 7 11 12 15 17 15 17 18 20 25 27 30 30 28 27 27 27 27 30 13 12 6 13 11 12 16 13 13 12 11 12 10 11 10 9 13 15 16 17 18 17 17 18 17
4 5 4 5 6 7 8 12 15 17 11 11 15 19 25 28 31 33 28 27 27 26 27 22 31 21 20 24 15 15 8 23 15 12 12 13 11 11 10 10 12 14 16 16 16 17 18 17 24
5 11 8 9 5 2 4 8 9 12 7 7 12 14 22 25 28 31 29 27 25 25 25 25 28 33 27 25 21 13 8 6 18 12 10 12 11 10 12 14 16 16 19 17 19 19 18 17 19
15 12 8 7 6 4 3 2 6 10 5 5 12 12 19 21 27 29 32 27 26 27 29 29 27 28 26 25 27 14 13 12 17 13 10 12 9 9 13 15 17 18 17 21 22 22 20 18 15
18 13 12 11 9 8 11 10 5 8 5 7 7 13 19 18 24 28 29 28 27 27 30 28 28 29 27 25 20 11 10 15 16 13 10 9 8 8 12 12 15 17 18 20 19 13 17 19 20
17 15 16 13 11 9 10 12 9 12 12 11 12 16 16 21 22 29 31 31 26 25 28 28 29 31 28 27 19 4 10 13 19 14 9 10 9 9 9 11 14 16 17 17 16 15 16 18 19
21 20 19 18 14 12 12 10 12 14 18 15 18 17 21 21 20 26 31 30 26 24 24 29 34 31 26 24 30 7 12 20 17 13 11 12 10 10 12 14 14 16 16 17 17 15 16 19 17
23 24 21 21 20 18 15 7 16 16 18 21 22 19 25 24 19 25 31 25 23 23 22 26 30 31 24 20 22 7 18 14 14 9 7 9 10 12 15 15 16 13 14 14 16 17 18 19 20
26 24 24 24 24 22 17 16 12 19 26 26 23 18 14 14 16 23 24 24 22 20 23 23 27 29 23 18 17 11 3 1 5 5 7 10 11 13 16 18 12 12 14 13 12 18 19 20 21
26 25 27 28 26 24 21 22 23 25 20 16 13 16 14 14 16 23 28 24 23 19 20 21 24 28 27 19 14 11 4 3 3 4 7 10 12 14 14 11 9 8 7 8 12 17 21 21 22
23 23 28 23 17 22 24 26 25 23 14 12 12 19 19 16 18 26 26 24 23 20 20 20 21 26 26 19 16 9 6 6 6 7 10 12 13 9 7 6 8 8 9 10 14 17 20 20 20
21 21 22 21 15 17 19 21 20 20 19 14 17 19 13 18 25 26 25 29 28 25 19 20 21 24 25 23 14 11 7 7 8 9 11 13 11 8 6 7 7 7 8 11 15 15 16 17 16
20 22 23 20 17 18 19 18 17 16 14 17 16 16 12 18 21 22 27 26 31 18 20 20 22 24 26 28 21 14 10 8 7 8 8 9 8 6 5 6 7 8 8 9 13 9 4 3 3
19 21 20 22 17 17 16 15 16 16 15 15 14 11 13 20 24 25 21 23 20 18 21 25 26 29 30 38 30 19 15 10 9 8 8 7 6 5 5 5 5 6 6 6 8 6 4 4 5
22 21 19 18 14 13 11 14 17 15 16 16 18 19 20 23 26 26 25 28 31 28 27 28 31 33 37 32 28 18 20 15 12 11 8 5 4 3 3 4 5 2 4 8 14 14 8 7 4
24 22 20 19 18 15 14 15 18 16 17 18 20 19 22 24 25 22 24 28 30 24 24 28 31 35 44 39 12 18 21 15 13 13 10 6 4 4 4 5 4 2 5 7 9 10 13 15 13
23 21 23 22 18 16 17 15 15 17 19 21 19 22 23 24 18 17 25 23 26 19 23 25 31 33 45 4 15 19 19 15 11 9 11 6 4 3 4 4 4 4 4 3 2 4 7 9 9

GFSSGP_500_spd_045.txt.gz
Wind_Speed
15 16 16 15 16 18 19 20 22 24 24 22 21 19 15 13 9 4 3 3 5 6 5 5 5 6 6 5 5 5 5 3 3 3 4 4 4 4 5 5 4 3 3 6 10 10 11 13 13
17 15 14 13 15 15 20 22 25 26 25 25 24 23 20 16 10 4 3 3 5 7 6 3 4 4 3 4 6 5 6 7 6 7 7 8 6 6 6 5 4 2 5 8 14 10 11 13 12
15 11 12 13 13 18 22 24 25 28 28 28 25 26 26 24 16 7 5 4 7 9 6 2 1 1 1 4 5 5 6 7 6 6 7 5 3 4 5 4 4 1 4 8 9 9 8 10 11
15 11 10 12 14 18 21 22 24 27 27 28 26 27 28 29 24 15 8 8 10 10 7 4 2 2 1 3 3 4 5 5 6 6 5 4 4 4 2 3 4 2 4 4 5 4 13 8 7
14 9 7 10 14 15 17 20 22 25 26 27 28 28 29 27 24 19 15 10 9 9 6 3 3 5 1 3 4 3 5 4 2 4 5 6 6 7 7 6 5 4 3 4 4 4 3 4 9
15 10 7 12 16 18 18 19 22 25 26 26 27 29 29 27 24 21 18 14 10 7 5 4 3 4 4 2 2 2 3 3 2 2 2 3 4 5 6 9 10 9 7 4 4 4 4 2 6
13 13 8 10 17 19 20 22 23 26 27 26 26 27 28 27 25 21 20 17 14 11 7 6 4 3 4 4 3 4 3 2 2 2 2 2 2 3 3 4 6 6 7 6 7 6 2 3 4
11 14 11 11 16 18 19 21 24 26 27 25 26 27 27 27 26 24 23 20 16 12 9 6 3 3 2 2 3 3 3 4 4 3 3 3 2 2 3 4 4 4 4 6 8 9 4 4 5
5 7 8 10 14 15 19 22 24 26 26 25 26 24 24 25 25 24 24 22 18 14 11 7 5 3 3 3 2 3 4 6 5 5 5 5 5 4 3 4 5 5 4 6 8 8 8 6 3
5 6 8 11 13 14 18 21 23 24 23 25 24 23 23 22 22 24 23 23 19 15 13 8 4 2 2 2 3 3 4 6 7 7 7 6 7 8 7 8 7 6 6 6 7 9 9 11 9
5 5 7 10 14 15 19 20 22 22 23 23 22 23 23 23 23 24 23 21 21 19 16 17 13 9 5 5 5 6 6 7 7 7 8 8 9 9 9 9 11 10 8 8 8 7 10 12 12
5 4 6 9 13 12 15 17 20 20 20 20 20 20 23 26 26 25 24 24 23 20 20 23 24 20 14 8 10 9 9 12 11 10 10 9 9 11 11 12 12 15 11 9 11 10 12 13 14
5 2 7 8 10 11 12 16 17 17 17 17 19 21 23 24 26 27 26 26 26 23 24 22 26 24 6 13 19 7 10 15 14 14 10 7 7 8 10 9 11 12 8 10 12 13 14 14 14
1 3 7 9 8 9 10 13 15 12 11 15 14 21 22 22 26 28 28 28 27 25 23 21 20 23 12 26 11 10 12 15 14 10 8 8 8 10 11 9 9 8 7 10 11 14 15 15 16
2 7 9 8 9 8 9 10 11 11 7 12 12 16 19 20 24 28 29 26 26 24 24 22 22 23 22 26 26 17 11 12 14 11 9 11 12 12 11 9 8 7 8 11 13 12 13 15 15
6 9 12 11 8 4 3 5 10 9 6 9 11 12 18 22 23 26 29 30 27 23 22 19 20 24 28 27 28 16 6 4 18 14 21 14 13 13 11 10 10 10 12 12 16 14 16 20 18
16 11 11 12 9 5 1 3 2 5 2 2 9 13 17 21 23 23 27 31 29 25 25 25 21 28 29 24 27 12 9 13 18 18 15 13 12 12 11 13 12 11 12 14 14 14 18 22 19
18 14 11 11 8 8 7 7 8 4 8 7 10 15 20 23 24 23 28 33 28 24 26 26 25 28 28 22 24 11 15 20 19 22 17 12 11 10 9 10 10 11 13 14 14 15 14 12 20
17 14 14 12 8 9 9 9 6 5 10 9 11 15 20 22 26 25 26 29 25 23 23 27 25 28 28 25 25 10 11 12 21 20 16 14 11 8 8 9 10 13 13 14 15 15 14 14 16
15 16 16 15 12 9 12 10 8 8 10 11 12 16 21 23 23 20 23 26 24 22 21 24 24 25 28 26 23 6 5 8 19 16 12 13 9 7 8 10 12 15 17 15 15 16 15 15 15
16 17 17 18 15 15 13 12 11 9 12 17 15 15 20 22 18 16 22 25 22 21 19 22 22 25 28 25 21 13 11 12 12 11 9 4 1 7 11 11 13 15 17 15 16 17 16 16 17
17 17 20 22 20 21 18 14 13 15 18 21 17 16 12 12 12 16 22 23 22 20 20 21 22 24 26 25 20 14 15 8 3 5 8 6 7 9 11 11 13 13 13 15 16 15 15 16 18
21 21 22 26 23 21 23 21 18 16 19 19 12 11 16 14 15 17 21 23 26 22 24 18 20 22 22 25 20 12 11 8 6 7 7 5 5 8 8 8 9 9 8 9 12 15 17 18 19
22 23 25 28 29 25 19 18 20 20 18 17 15 13 17 18 15 18 19 24 25 22 29 16 20 21 23 24 21 16 7 5 7 8 8 8 7 6 6 7 9 9 9 11 12 16 17 17 19
20 20 21 23 23 23 20 17 17 16 15 14 12 16 17 17 18 18 17 20 21 19 14 15 18 21 25 27 25 25 19 8 6 6 7 9 9 8 7 7 7 6 8 10 11 14 12 10 10
16 17 18 20 18 17 19 17 15 17 15 12 13 15 18 20 18 19 14 19 21 19 18 18 20 21 26 30 32 33 19 17 11 8 8 9 10 8 8 7 6 7 9 10 10 10 8 8 8
20 19 20 21 22 19 18 16 17 16 12 12 13 14 16 17 19 19 19 19 21 23 25 19 22 24 27 32 36 34 20 17 16 8 9 8 10 8 8 6 5 5 5 6 9 9 8 8 8
22 21 20 19 17 17 15 16 15 12 9 11 12 16 16 16 15 17 18 19 23 25 25 17 22 24 30 36 38 44 29 21 18 10 11 11 11 8 8 6 5 1 4 8 12 13 12 11 7
24 23 22 19 19 19 14 14 15 12 8 9 13 15 14 15 17 16 17 22 23 27 22 17 21 25 32 44 22 5 14 19 14 10 10 13 11 9 8 5 5 4 6 5 6 7 9 10 10
23 23 19 22 19 19 15 14 12 8 6 9 10 15 13 13 13 18 20 24 26 26 20 18 22 25 34 25 9 9 11 11 10 10 12 14 12 9 7 7 6 6 7 5 2 2 5 7 8

GFSSGP_500_spd_048.txt.gz
Wind_Speed
16 16 16 14 23 23 22 22 23 22 21 20 21 18 12 6 2 1 2 2 5 6 5 7 4 4 5 5 5 4 4 4 5 6 4 3 4 4 4 6 5 3 6 12 14 14 14 15 16
16 17 14 16 20 22 22 22 21 22 22 21 23 22 19 11 6 4 3 3 6 6 4 4 3 3 5 4 4 4 3 3 5 6 7 7 6 5 5 4 4 3 4 10 12 13 13 15 15
16 16 14 19 19 20 21 20 20 22 25 23 23 23 25 22 15 9 8 6 6 7 5 3 2 1 3 4 5 4 5 5 6 7 7 5 5 5 4 4 3 1 4 4 17 12 12 13 14
14 13 13 12 13 17 20 20 21 24 26 25 23 25 27 25 19 15 11 8 7 7 6 3 2 1 3 4 5 5 6 6 6 6 6 4 3 3 1 2 2 2 4 2 10 16 11 12 12
12 13 13 10 10 13 20 20 21 24 26 27 27 26 25 23 18 15 14 10 8 6 6 4 3 2 2 3 6 6 7 8 8 7 5 6 6 6 5 4 3 4 4 3 1 9 16 13 13
12 16 9 11 14 17 19 19 21 24 27 28 26 26 25 24 21 18 16 13 9 7 6 3 2 2 1 3 7 7 7 8 8 7 5 4 5 6 7 8 9 8 6 3 1 1 2 12 14
11 14 10 12 15 18 18 17 21 23 24 26 24 25 24 24 23 23 19 15 13 11 8 5 3 3 2 3 7 7 7 7 7 8 7 5 4 4 5 5 8 8 7 6 4 2 1 4 10
11 11 8 10 11 15 16 18 21 22 24 24 22 23 23 23 21 21 19 18 17 14 11 7 6 5 5 5 7 7 8 7 7 7 8 8 6 3 3 4 4 5 5 5 7 6 5 4 7
7 9 2 5 11 13 15 19 20 23 24 22 22 21 20 20 19 20 21 22 20 18 17 12 9 7 6 6 7 9 10 9 8 9 9 9 7 6 3 3 4 4 4 4 7 6 8 4 5
6 5 4 5 10 14 14 18 19 22 23 21 20 19 19 20 22 23 24 24 21 16 16 12 11 10 10 10 8 9 11 12 11 10 10 9 9 7 6 5 5 6 6 6 5 7 7 9 8
6 7 3 6 7 8 13 16 19 20 20 19 19 19 20 22 24 25 27 25 20 17 15 12 12 10 6 8 12 11 12 12 14 13 13 12 11 8 7 7 8 8 8 9 9 8 7 7 11
1 6 4 9 8 7 10 13 17 17 15 16 18 19 21 23 26 26 25 24 21 20 15 16 18 19 4 7 13 19 18 16 15 15 14 13 11 9 8 11 10 9 10 12 11 10 11 10 10
3 4 7 11 9 9 8 9 11 13 13 12 14 17 21 23 26 27 26 25 23 22 19 17 17 19 10 15 18 12 22 19 18 19 15 12 8 6 6 8 10 10 10 10 11 12 11 13 12
1 4 11 10 10 8 7 8 8 10 11 12 12 15 19 22 24 25 25 27 26 24 22 18 16 17 18 19 17 14 10 12 15 20 16 12 10 5 3 7 8 10 10 8 9 9 12 14 14
4 3 6 9 10 8 6 6 6 7 8 11 14 13 18 22 25 23 26 29 26 22 23 20 15 21 21 21 17 19 8 11 3 19 18 12 18 8 8 11 9 10 8 7 8 9 9 11 13
9 7 5 13 10 7 4 3 1 2 4 9 13 14 15 19 22 26 26 30 24 22 21 22 19 23 24 22 21 18 4 7 8 15 15 9 5 12 12 9 10 9 10 11 11 14 14 14 16
9 7 10 12 12 8 5 5 3 1 6 7 13 17 17 19 24 27 25 25 25 23 21 23 22 25 27 23 20 20 9 10 11 14 13 14 13 11 10 10 9 10 10 9 12 12 11 16 18
13 11 11 16 14 11 7 6 4 1 3 4 8 16 20 23 24 26 20 22 24 24 21 22 22 25 27 23 22 16 9 13 11 17 15 16 14 10 12 10 7 7 8 11 12 12 13 14 13
23 16 16 14 13 11 10 8 6 3 3 5 10 15 22 22 24 25 19 23 23 22 22 22 23 27 30 27 24 17 5 12 16 14 17 16 13 12 10 6 5 9 11 13 13 13 13 14 11
16 15 15 15 10 8 8 8 8 8 9 7 13 15 18 18 21 19 19 23 22 23 21 20 22 25 30 30 26 16 5 5 8 13 15 15 12 13 10 8 10 12 13 12 12 11 12 13 13
14 15 16 15 9 9 9 12 10 9 9 11 15 12 10 12 15 15 16 19 22 24 21 21 19 21 25 27 23 20 14 5 8 13 10 13 13 11 10 10 12 14 15 13 13 14 13 12 13
14 15 13 16 12 8 10 4 21 16 15 16 15 11 7 13 18 15 14 19 23 23 21 23 13 17 22 23 24 18 13 15 6 7 9 7 5 8 10 11 12 11 10 11 10 11 11 11 14
17 13 15 17 16 15 15 14 12 18 16 18 14 9 15 15 14 17 17 19 21 21 21 15 12 16 17 19 19 18 18 14 5 3 3 3 3 5 5 6 5 6 6 7 9 11 14 14 15
18 14 15 17 18 16 20 18 10 12 14 14 14 14 13 14 15 17 18 18 18 21 20 16 14 17 18 20 21 20 20 14 12 6 3 3 3 2 0 2 4 5 6 8 10 11 14 12 10
18 16 12 13 14 13 21 16 14 17 12 11 11 13 15 16 17 17 20 20 22 22 20 21 19 17 20 21 22 23 22 11 11 10 6 3 4 1 1 2 3 4 6 8 10 11 6 5 6
17 14 13 14 13 13 16 15 13 15 12 8 9 9 14 15 17 17 20 22 21 22 25 23 23 20 21 25 29 26 23 16 11 13 8 4 4 3 4 4 5 5 7 6 7 5 5 5 8
22 19 18 19 20 16 13 15 16 14 9 5 6 11 14 14 17 17 17 20 21 25 27 27 20 19 23 29 31 32 33 22 12 11 9 5 4 5 6 6 5 3 2 3 6 7 10 9 11
24 19 17 17 13 10 14 13 8 9 6 6 8 11 11 12 12 13 15 20 22 26 29 26 21 22 25 33 39 22 10 5 10 12 8 6 4 6 7 8 8 5 5 7 9 9 11 13 12
24 23 21 15 16 9 9 7 12 6 6 7 5 5 8 9 9 10 16 21 25 27 28 26 22 22 26 41 18 13 14 15 13 13 7 6 5 5 8 8 9 8 9 7 5 2 4 7 8
25 23 22 18 18 17 13 10 13 7 8 7 6 7 8 10 10 14 18 23 27 26 26 24 23 23 25 35 3 4 8 7 13 9 6 6 8 7 10 11 10 9 11 9 8 6 4 4 4

GFSSGP_500_spd_051.txt.gz
Wind_Speed
21 20 16 25 34 14 17 18 17 17 15 15 13 4 10 11 1 3 5 3 2 2 2 2 1 3 4 4 4 5 5 5 6 6 6 5 3 4 6 4 4 13 13 14 13 13 13 13 14
20 15 15 35 13 14 17 16 15 15 14 16 16 17 10 7 3 0 2 2 1 2 1 1 2 5 5 4 3 3 4 5 5 6 6 6 5 6 6 4 2 1 13 11 13 12 13 14 14
18 22 23 15 12 15 14 14 15 16 16 15 17 16 18 16 12 9 7 4 3 4 3 1 2 4 4 2 3 4 4 4 5 6 6 5 4 4 5 3 2 2 3 15 12 13 12 12 13
21 24 28 10 12 14 13 14 17 17 19 17 16 15 18 17 15 12 10 7 7 6 5 4 5 4 2 1 3 4 6 7 6 7 6 4 4 4 3 2 2 3 5 10 17 13 12 13 12
24 26 24 11 10 13 14 14 17 17 18 19 18 18 18 18 17 15 12 10 9 8 6 4 4 4 2 2 5 6 6 8 9 10 8 7 6 4 3 2 0 2 3 1 11 15 14 13 13
25 17 12 9 10 11 11 16 17 16 18 19 17 21 22 22 20 17 15 14 12 9 6 5 5 4 3 2 4 8 7 8 8 9 9 8 6 6 6 6 5 4 5 6 2 15 14 13 14
16 19 8 7 6 8 12 15 13 17 18 19 20 20 20 20 20 20 19 17 15 11 9 7 5 6 6 6 5 7 8 9 9 9 9 8 7 6 6 6 5 5 5 5 5 1 7 17 16
16 15 9 14 6 5 14 12 16 17 17 19 19 19 21 21 20 20 18 15 14 13 12 8 7 6 6 7 9 9 8 9 10 11 9 8 6 5 5 4 5 4 5 5 5 3 1 2 13
9 4 17 4 12 6 12 9 13 15 17 22 24 23 21 21 21 21 20 18 16 15 14 10 5 4 4 6 8 10 11 10 10 11 11 11 8 7 6 6 6 6 5 4 4 3 6 4 7
2 5 12 6 10 2 7 4 8 16 16 22 22 20 20 22 24 22 21 20 20 18 15 14 12 10 6 5 8 11 12 13 12 11 12 13 11 9 7 6 6 6 5 5 4 5 6 8 7
2 5 2 2 3 12 5 5 9 11 17 17 19 19 21 25 29 24 23 23 23 21 16 16 16 18 8 4 6 12 15 16 15 15 14 16 14 12 10 8 7 6 6 6 7 7 6 7 8
6 3 6 2 3 5 4 6 5 9 10 13 15 15 18 24 26 24 27 27 24 21 19 16 17 20 7 6 10 14 15 18 18 18 17 18 16 12 10 7 8 9 9 13 6 11 8 8 7
2 7 4 4 4 5 5 2 3 5 9 12 15 18 21 23 25 24 27 31 24 21 19 19 15 19 14 14 13 10 9 10 15 20 19 18 16 13 12 13 11 9 10 9 14 11 10 11 10
11 9 6 5 8 4 3 6 8 8 10 12 15 16 19 22 23 25 27 29 24 21 21 19 15 22 19 16 16 17 13 12 14 15 21 20 18 16 15 8 5 7 8 7 8 12 13 13 13
8 7 5 8 6 5 3 11 4 9 8 10 13 13 16 19 23 26 25 26 26 22 19 20 19 21 25 21 18 20 23 12 15 11 21 20 23 20 19 11 9 7 8 6 8 8 9 10 12
9 6 11 11 10 7 6 16 10 16 9 8 11 14 16 19 23 25 24 25 26 24 21 21 23 25 28 24 21 22 23 11 16 11 18 21 18 15 10 12 5 7 9 9 10 12 11 14 15
9 17 14 2 16 12 3 3 4 21 12 10 11 13 18 21 21 23 19 26 27 24 23 21 23 25 28 28 23 25 17 10 13 15 14 15 10 12 15 9 18 8 11 11 11 12 14 14 17
11 11 8 12 6 12 8 6 12 18 8 8 12 14 17 17 17 20 19 24 26 24 25 24 23 24 27 28 24 25 11 9 10 8 12 9 11 8 9 8 9 7 10 7 9 11 13 14 16
17 12 13 9 14 13 8 9 10 14 9 11 9 14 18 16 13 18 18 21 23 24 27 26 24 24 25 26 23 16 9 6 9 8 12 9 9 12 8 6 7 7 7 8 11 12 11 13 13
23 15 11 12 14 13 9 8 7 14 11 9 14 15 15 13 13 15 15 18 23 27 29 26 26 25 19 22 24 23 18 6 5 9 9 10 14 12 7 5 5 8 10 11 12 12 10 10 11
17 14 12 13 13 10 10 10 15 11 14 12 10 15 10 11 18 15 17 19 24 25 27 27 22 13 16 19 19 20 21 10 4 7 8 9 12 13 10 5 9 9 11 12 10 8 8 11 12
16 14 15 16 13 6 14 7 12 10 14 17 11 9 9 15 20 19 18 20 22 23 27 25 20 18 18 18 20 16 18 14 16 8 8 5 5 4 7 7 8 8 8 7 6 6 7 9 12
12 13 17 14 13 12 13 11 6 21 19 9 14 8 13 15 17 18 20 21 22 23 27 22 23 23 20 19 18 19 17 16 7 9 7 5 2 3 4 7 6 4 4 5 6 8 9 11 13
14 18 13 12 11 14 14 14 12 14 16 15 17 10 13 16 16 19 21 23 22 24 23 24 26 27 22 22 20 20 19 17 5 6 4 4 4 5 8 7 3 1 2 4 7 9 10 9 8
18 13 8 9 10 13 17 16 12 21 29 26 18 11 13 18 16 20 22 23 23 20 23 25 27 27 22 21 22 24 24 14 8 6 8 5 4 5 8 7 3 1 2 5 8 8 5 5 6
17 16 12 10 13 15 22 21 12 24 18 19 14 12 14 16 17 21 21 21 19 21 23 27 27 24 21 24 27 27 27 24 22 10 9 9 6 5 7 6 3 0 3 4 4 3 2 2 3
16 20 14 18 18 18 12 13 13 20 18 15 11 12 14 15 18 22 18 15 19 22 27 27 28 23 23 28 32 34 35 25 14 13 12 11 8 6 7 6 3 1 0 0 3 6 6 5 6
22 17 17 15 13 15 12 17 11 19 9 10 12 12 13 14 17 18 13 16 22 26 28 29 27 24 24 30 36 38 13 10 8 9 11 11 10 6 4 3 2 1 4 5 5 4 5 6 6
23 23 19 15 15 13 16 15 19 19 14 14 13 13 11 13 16 16 14 19 26 26 27 29 29 29 25 31 37 4 14 9 7 10 12 11 10 8 4 3 2 3 6 7 5 3 2 4 6
18 19 20 18 17 17 20 11 4 13 16 15 16 15 12 10 12 14 18 22 24 26 28 29 30 28 23 26 30 26 15 8 13 12 9 9 9 9 6 5 4 4 5 9 10 10 9 8 9

GFSSGP_500_spd_054.txt.gz
Wind_Speed
22 28 30 24 34 16 16 15 14 13 12 11 5 6 18 8 8 4 12 9 8 7 3 1 3 4 5 5 5 6 5 5 5 4 3 2 2 6 10 7 9 11 10 9 9 10 11 11 11
20 19 16 31 23 10 15 13 12 13 12 11 9 9 9 12 11 9 9 9 8 5 3 3 5 6 6 6 5 4 5 5 6 4 4 3 3 4 4 8 8 8 9 8 9 10 11 12 12
23 25 22 31 8 12 13 12 12 13 13 13 13 12 12 14 13 13 12 10 8 5 4 5 6 6 5 3 4 5 4 3 2 2 5 4 3 3 5 3 4 8 7 9 8 9 10 12 12
20 25 29 15 3 12 11 12 13 12 13 14 16 13 14 14 14 14 12 11 7 7 6 5 6 5 3 2 3 4 4 3 3 3 4 4 3 4 4 5 6 8 6 11 9 9 9 9 11
18 23 21 13 10 13 13 12 12 12 14 17 18 18 18 18 17 16 15 11 10 8 8 7 7 7 5 2 3 5 5 5 4 6 6 5 5 4 3 5 5 8 7 7 17 13 13 11 8
24 14 25 6 6 10 13 11 12 14 15 15 18 19 20 20 19 17 16 14 13 11 9 7 6 6 7 6 4 4 7 6 7 7 7 7 6 6 6 6 5 5 6 8 10 17 15 14 12
8 3 21 3 7 12 8 9 13 16 15 17 18 21 21 21 20 18 16 15 14 13 11 8 6 5 5 6 7 6 6 7 7 8 7 7 7 6 6 7 5 6 5 6 5 19 15 14 13
8 15 18 21 11 11 12 8 11 16 15 19 23 23 23 25 22 21 20 18 15 15 14 14 10 6 5 5 4 6 6 7 8 8 8 8 7 5 6 6 6 6 6 7 9 11 16 17 16
11 13 11 11 9 11 10 7 9 15 18 19 21 22 23 27 23 22 22 22 20 18 16 16 14 13 10 8 6 7 8 9 9 9 10 9 8 6 5 6 6 6 6 5 6 8 12 12 20
14 14 19 21 13 8 12 11 10 12 14 17 18 18 21 25 21 23 26 25 20 18 18 16 14 16 14 10 9 9 10 11 11 11 10 11 9 7 9 7 8 4 3 4 6 9 10 9 12
21 21 15 10 9 7 8 14 6 17 15 15 16 16 17 22 19 24 27 29 20 20 17 16 17 20 20 4 14 13 12 14 12 14 14 9 15 15 8 9 7 7 5 4 5 5 7 9 9
25 16 10 9 2 5 13 8 4 10 12 12 14 16 20 23 24 24 28 29 23 21 22 21 17 21 17 18 13 13 16 17 14 13 17 11 13 16 11 13 10 14 5 9 7 11 5 5 6
12 6 8 12 3 4 10 9 4 7 11 12 14 17 20 24 26 25 27 28 26 23 22 22 20 23 23 19 17 17 13 19 15 16 22 13 13 16 18 19 16 12 7 10 10 9 8 6 7
20 5 5 8 10 4 2 21 18 12 10 13 14 17 18 21 24 26 26 28 30 25 23 23 23 23 26 26 23 21 16 18 17 17 13 12 17 18 18 18 19 14 15 11 11 12 9 7 11
26 8 8 7 11 7 14 16 17 11 9 15 16 15 17 19 21 24 24 27 31 30 26 25 25 26 26 28 29 23 20 21 11 13 12 18 20 20 16 18 11 12 14 19 18 11 12 10 9
15 8 24 18 12 12 14 22 17 1 8 11 14 15 16 17 19 21 24 26 29 31 30 30 28 26 28 29 30 26 24 17 11 17 10 18 19 18 18 15 13 10 11 14 6 14 9 7 10
8 17 21 12 11 5 18 16 29 13 4 16 14 17 15 15 15 19 22 24 27 28 31 32 29 24 27 29 29 26 23 10 4 12 13 12 14 16 19 16 12 8 12 8 11 11 9 12 15
30 29 20 12 8 12 12 13 21 26 19 24 11 12 17 15 15 17 20 22 25 29 31 31 31 27 23 25 28 25 23 2 4 6 5 9 14 10 12 16 11 9 6 5 7 7 10 12 12
30 19 8 10 8 16 10 6 10 22 22 13 21 8 14 15 14 17 18 20 24 28 28 34 34 25 18 23 28 28 23 16 6 7 8 11 8 14 7 11 10 11 9 7 7 9 12 12 10
15 27 13 9 11 15 6 8 10 17 8 13 19 19 21 16 13 15 20 20 24 26 29 33 29 25 24 22 24 27 30 21 10 1 6 8 8 11 7 12 9 6 5 7 7 8 10 10 9
19 14 10 9 11 14 9 11 7 20 14 15 18 23 21 14 16 16 18 20 24 26 28 31 26 26 24 24 21 21 23 25 18 9 4 9 11 12 13 9 8 7 6 6 7 7 5 8 11
19 13 13 12 11 11 15 15 15 24 21 8 13 19 20 20 20 17 17 21 25 26 26 27 26 26 24 23 20 18 19 20 18 15 5 3 4 6 11 11 8 7 6 5 4 3 5 7 9
17 13 10 17 17 13 14 18 18 26 12 10 13 19 17 21 21 16 18 22 25 26 23 23 25 27 27 21 17 17 16 17 18 12 7 6 4 3 3 7 8 6 7 6 5 6 7 8 9
15 13 11 14 13 16 13 13 14 25 6 11 19 22 24 23 17 18 19 21 23 21 20 23 27 27 27 22 19 21 20 17 14 9 8 6 1 4 6 8 8 7 7 6 5 5 6 5 5
17 13 12 10 11 10 12 16 19 24 23 26 31 31 28 23 16 18 21 21 19 17 20 25 27 26 28 25 22 25 27 25 16 16 13 9 4 5 8 10 11 8 7 5 2 3 3 3 3
19 16 14 13 11 17 24 22 17 24 26 20 25 29 25 18 13 21 21 19 16 18 24 28 27 28 30 29 27 30 33 27 26 22 14 12 8 5 6 8 9 7 5 2 2 1 1 2 3
16 17 17 19 19 19 24 13 18 21 23 19 20 18 17 15 17 18 19 16 18 24 26 25 28 29 29 32 28 36 42 41 23 26 15 15 10 7 5 7 10 9 5 5 6 6 5 6 5
21 11 15 18 19 18 11 20 24 26 24 16 16 14 13 15 17 18 18 15 19 21 24 26 29 30 32 27 31 40 29 4 20 21 17 18 12 9 6 8 8 9 9 9 9 8 6 4 4
18 24 19 16 14 21 24 20 25 29 17 13 15 15 14 13 13 16 18 14 18 21 24 28 31 33 31 27 27 34 35 6 12 12 17 19 12 12 9 9 9 11 12 12 9 5 3 1 3
22 16 19 19 23 21 20 25 30 30 9 17 16 18 15 13 14 14 16 18 19 23 25 29 33 31 28 24 24 25 24 21 5 11 16 11 11 13 11 9 8 8 10 13 11 9 6 7 7